Location: Betz
(49.1556°N, 2.9558°E)
Time: 21:28:50
(UTC+00:00)

Cosmos 389 Rocket - Pass Details

Date: 18 September 2019
Orbit: 444 x 479 km, 81.1° (Epoch: 13 October)

Event Time Altitude Azimuth Distance (km) Brightness Sun altitude
Rises 19:28:17 0° 347° (NNW) 2,458 6.6 -15.6°
Reaches altitude 10° 19:30:21 10° 347° (NNW) 1,579 5.6 -15.9°
Maximum altitude 19:33:48 87° 260° (W) 452 2.3 -16.4°
Enters shadow 19:35:47 23° 171° (S) 982 3.8 -16.7°
